CW8968 Weather Reports


time (UTC)temp
C
wind
direction
speed
KPH
gust
KPH
rain 1hr
cm
rain 24hr
cm
rain mn
cm
humidity
%
barometer
mb
20260506120811 11 38 30.6 45.1 0.00 0.00 0.00 73
20260506120259 11 51 27.4 45.1 0.00 0.00 0.00 75
20260506115751 11 38 22.5 38.6 0.00 0.00 0.00 76
20260506115242 11 62 20.9 43.5 0.00 0.00 0.00 77
20260506114737 11 70 24.1 43.5 0.00 0.00 0.00 77
20260506114502 11 61 27.4 43.5 0.00 0.00 0.00 77
20260506113719 11 55 25.7 43.5 0.00 0.00 0.00 77
20260506113216 11 48 22.5 43.5 0.00 0.00 0.00 76
20260506112710 11 67 22.5 40.2 0.00 0.00 0.00 76
20260506112433 11 44 22.5 33.8 0.00 0.00 0.00 77
20260506111651 11 58 19.3 35.4 0.00 0.00 0.00 76
20260506111150 11 28 24.1 41.8 0.00 0.00 0.00 76
20260506110636 10 44 24.1 41.8 0.00 0.00 0.00 75
20260506110125 10 46 24.1 38.6 0.00 0.00 0.00 75
20260506105616 10 42 25.7 38.6 0.00 0.00 0.00 74
20260506105117 10 78 27.4 46.7 0.00 0.00 0.00 76
20260506104616 10 63 27.4 46.7 0.00 0.00 0.00 75
20260506104116 10 54 25.7 43.5 0.00 0.00 0.00 76
20260506103616 10 57 27.4 43.5 0.00 0.00 0.00 75
20260506103346 10 24 27.4 43.5 0.00 0.00 0.00 75
20260506102846 10 61 30.6 48.3 0.00 0.00 0.00 74
20260506102115 10 51 33.8 56.3 0.00 0.03 0.00 74
20260506101618 10 53 32.2 56.3 0.00 0.03 0.00 74
20260506101112 10 61 30.6 48.3 0.00 0.03 0.00 74
20260506100611 10 43 30.6 51.5 0.00 0.03 0.00 74
20260506100119 10 47 30.6 51.5 0.00 0.03 0.00 74
20260506095842 10 50 30.6 48.3 0.00 0.03 0.00 74
20260506095112 10 61 29.0 43.5 0.00 0.03 0.00 75
20260506094612 10 43 29.0 46.7 0.00 0.03 0.00 74
20260506094111 10 52 29.0 49.9 0.00 0.03 0.00 73
20260506093613 10 52 32.2 53.1 0.00 0.03 0.00 73
20260506093113 10 51 32.2 53.1 0.00 0.03 0.00 72
20260506092607 10 62 29.0 48.3 0.00 0.03 0.00 73
20260506092108 10 42 24.1 48.3 0.00 0.03 0.00 73
20260506091607 10 39 25.7 45.1 0.00 0.03 0.00 76
20260506091109 10 28 27.4 45.1 0.00 0.03 0.00 74
20260506090607 10 32 24.1 38.6 0.00 0.03 0.00 76
20260506090107 10 23 25.7 38.6 0.00 0.03 0.00 75
20260506085608 10 32 27.4 41.8 0.00 0.03 0.00 76
20260506085340 10 40 27.4 43.5 0.00 0.03 0.00 75
20260506084609 10 26 27.4 43.5 0.00 0.03 0.00 76
20260506084102 10 59 27.4 46.7 0.00 0.03 0.00 77
20260506083551 10 47 24.1 46.7 0.00 0.03 0.00 78
20260506083053 10 0 22.5 41.8 0.00 0.03 0.00 78
20260506082552 10 49 22.5 41.8 0.00 0.03 0.00 79
20260506082051 10 35 22.5 38.6 0.00 0.03 0.00 79
20260506081552 10 28 25.7 54.7 0.00 0.03 0.00 81
20260506081053 10 28 27.4 54.7 0.00 0.03 0.00 79
20260506080552 10 44 25.7 45.1 0.00 0.03 0.00 80
20260506073513 10 42 20.9 38.6 0.00 0.03 0.00 85
20260506073013 10 30 22.5 38.6 0.00 0.03 0.00 85
20260506072513 10 13 25.7 43.5 0.00 0.03 0.00 84
20260506072015 10 11 25.7 43.5 0.00 0.03 0.00 84
20260506071514 10 15 25.7 46.7 0.00 0.03 0.00 84
20260506071014 10 21 22.5 46.7 0.00 0.03 0.00 84
20260506070513 10 29 24.1 40.2 0.00 0.03 0.00 84
20260506062417 10 23 20.9 32.2 0.00 0.03 0.00 84
20260506061917 10 19 20.9 32.2 0.00 0.03 0.00 84
20260506061419 10 38 19.3 32.2 0.00 0.03 0.00 84
20260506060917 10 5 17.7 32.2 0.00 0.03 0.00 84
20260506060417 10 26 19.3 30.6 0.00 0.03 0.00 84
20260506050902 9 37 14.5 24.1 0.00 0.03 0.00 86
20260506050353 9 50 14.5 27.4 0.00 0.03 0.00 86
20260506044833 9 32 16.1 29.0 0.00 0.03 0.00 86
20260506044327 9 22 17.7 29.0 0.00 0.03 0.00 86
20260506044320 9 24 19.3 30.6 0.00 0.03 0.00 86
20260506043314 9 34 19.3 30.6 0.00 0.03 0.00 87
20260506042803 9 17 20.9 32.2 0.00 0.03 0.00 87
20260506042532 9 26 20.9 32.2 0.00 0.03 0.00 88
20260506041800 10 22 20.9 29.0 0.00 0.03 0.00 88
20260506041307 9 15 22.5 37.0 0.00 0.03 0.00 88
20260506041302 9 22 22.5 29.0 0.00 0.03 0.00 88
20260506040530 9 22 22.5 37.0 0.00 0.03 0.00 89
20260506035802 9 18 20.9 30.6 0.00 0.03 0.00 89
20260506035306 9 23 20.9 33.8 0.00 0.03 0.00 90
20260506035300 9 20 19.3 30.6 0.00 0.03 0.00 90
20260506034300 9 24 22.5 33.8 0.00 0.03 0.00 90
20260506033805 9 9 22.5 32.2 0.00 0.03 0.00 90
20260506033801 9 17 22.5 32.2 0.00 0.03 0.00 90
20260506032803 9 9 24.1 32.2 0.00 0.03 0.00 90
20260506032305 10 31 25.7 38.6 0.00 0.03 0.00 90
20260506031803 10 17 27.4 38.6 0.00 0.03 0.00 91
20260506031301 10 10 25.7 37.0 0.00 0.03 0.00 91
20260506030748 10 351 24.1 37.0 0.00 0.03 0.00 91
20260506030244 9 21 24.1 35.4 0.00 0.03 0.00 91
20260506025735 10 0 24.1 33.8 0.00 0.03 0.00 91
20260506025230 9 355 22.5 33.8 0.00 0.03 0.00 91
20260506024723 9 13 20.9 29.0 0.00 0.03 0.00 91
20260506024719 9 14 22.5 33.8 0.00 0.03 0.00 91
20260506023711 9 9 19.3 29.0 0.00 0.03 0.00 91
20260506023204 9 24 20.9 35.4 0.00 0.03 0.00 91
20260506022657 9 10 19.3 35.4 0.00 0.03 0.00 91
20260506022152 9 17 22.5 29.0 0.00 0.03 0.00 91
20260506022148 9 19 19.3 27.4 0.00 0.03 0.00 91
20260506021141 9 18 20.9 29.0 0.00 0.03 0.00 91
20260506020634 9 24 19.3 29.0 0.00 0.03 0.00 91
20260506020357 9 9 19.3 25.7 0.00 0.03 0.00 90
20260506015622 9 17 19.3 29.0 0.00 0.03 0.00 90
20260506015114 9 26 19.3 29.0 0.00 0.03 0.00 90
20260506014609 9 17 16.1 25.7 0.00 0.03 0.00 90
20260506014059 9 23 16.1 24.1 0.00 0.03 0.00 90
20260506013556 9 15 16.1 25.7 0.00 0.03 0.00 90
20260506013049 9 18 17.7 25.7 0.00 0.03 0.00 89
20260506012544 9 22 19.3 25.7 0.00 0.03 0.00 90
20260506012309 9 21 17.7 25.7 0.00 0.03 0.00 89
20260506011527 9 27 17.7 25.7 0.00 0.03 0.00 89
20260506011025 9 21 17.7 25.7 0.00 0.03 0.00 89
20260506010517 9 24 17.7 25.7 0.00 0.03 0.00 89
20260506010014 9 22 17.7 25.7 0.00 0.03 0.00 89
20260506005508 9 31 17.7 29.0 0.00 0.03 0.00 89
20260506005002 9 24 17.7 29.0 0.00 0.03 0.00 89
20260506004455 9 19 17.7 29.0 0.00 0.03 0.00 89
20260506004450 9 22 17.7 27.4 0.00 0.03 0.00 89
20260506003444 9 18 17.7 27.4 0.00 0.03 0.00 89
20260506003210 9 18 16.1 27.4 0.00 0.03 0.00 89
20260506002433 9 18 16.1 27.4 0.00 0.03 0.00 88
20260506001927 9 17 17.7 27.4 0.00 0.03 0.00 88
20260506001419 9 5 17.7 27.4 0.00 0.03 0.00 88
20260506000915 9 26 17.7 27.4 0.00 0.03 0.00 88
20260506000405 9 13 17.7 27.4 0.00 0.03 0.00 88
20260505235902 9 26 19.3 27.4 0.00 0.03 0.00 88
20260505235355 9 20 20.9 27.4 0.00 0.03 0.00 88
20260505235122 9 19 22.5 30.6 0.00 0.03 0.00 88
20260505234345 9 17 20.9 30.6 0.00 0.03 0.00 88
20260505233834 9 17 17.7 30.6 0.00 0.03 0.00 88
20260505233608 9 18 17.7 32.2 0.00 0.03 0.00 88
20260505232827 9 9 19.3 32.2 0.00 0.03 0.00 87
20260505232320 9 14 20.9 33.8 0.00 0.03 0.00 87
20260505231814 9 15 20.9 33.8 0.00 0.03 0.00 87
20260505231304 9 5 20.9 29.0 0.00 0.03 0.00 87
20260505230802 9 17 20.9 32.2 0.00 0.03 0.00 87
20260505230258 9 38 22.5 38.6 0.00 0.03 0.00 87
20260505225750 9 22 24.1 38.6 0.00 0.03 0.00 87
20260505225245 9 13 24.1 40.2 0.00 0.03 0.00 87
20260505224738 9 17 25.7 40.2 0.00 0.03 0.00 87
20260505224233 9 12 24.1 40.2 0.00 0.03 0.00 87
20260505223725 9 20 24.1 35.4 0.00 0.03 0.00 87
20260505223721 9 20 22.5 35.4 0.00 0.03 0.00 87
20260505222947 9 15 24.1 38.6 0.00 0.03 0.00 87
20260505222210 9 20 24.1 38.6 0.00 0.03 0.00 87
20260505221702 9 13 22.5 38.6 0.00 0.03 0.00 88
20260505221154 9 15 22.5 37.0 0.00 0.03 0.00 88
20260505220650 9 25 25.7 37.0 0.00 0.03 0.00 88
20260505220144 9 28 25.7 38.6 0.00 0.03 0.00 88
20260505215640 9 15 24.1 38.6 0.00 0.03 0.03 88
20260505215134 9 28 22.5 38.6 0.00 0.03 0.03 88
20260505214625 9 22 22.5 32.2 0.00 0.03 0.03 88
20260505214118 9 26 22.5 32.2 0.00 0.03 0.03 88
20260505213612 9 20 22.5 33.8 0.00 0.03 0.03 88
20260505213335 9 9 25.7 37.0 0.00 0.03 0.03 88
20260505212602 10 5 25.7 37.0 0.00 0.03 0.03 88
20260505212322 10 5 27.4 38.6 0.00 0.03 0.03 88
20260505211548 9 28 25.7 38.6 0.00 0.03 0.03 88
20260505211042 10 19 25.7 33.8 0.00 0.03 0.03 88
20260505210529 10 23 27.4 40.2 0.00 0.03 0.03 87
20260505210029 10 27 29.0 40.2 0.00 0.03 0.03 87
20260505205524 10 9 27.4 40.2 0.00 0.03 0.03 87
20260505205017 10 17 27.4 41.8 0.00 0.03 0.03 87
20260505204508 10 9 27.4 41.8 0.00 0.03 0.03 87
20260505204002 10 31 25.7 35.4 0.00 0.03 0.03 87
20260505203728 10 355 27.4 38.6 0.00 0.03 0.03 87
20260505202950 10 5 25.7 41.8 0.00 0.03 0.03 87
20260505202439 10 33 25.7 41.8 0.00 0.03 0.03 87
20260505201938 10 5 29.0 45.1 0.00 0.03 0.03 87
20260505201435 10 13 29.0 45.1 0.00 0.03 0.03 87
20260505200926 10 11 27.4 43.5 0.00 0.03 0.03 87
20260505200651 10 28 25.7 43.5 0.00 0.03 0.03 87
20260505195916 10 13 25.7 45.1 0.00 0.03 0.03 87
20260505195639 10 20 24.1 45.1 0.00 0.03 0.03 87
20260505194902 10 27 22.5 37.0 0.00 0.03 0.03 88
20260505194356 10 19 24.1 37.0 0.00 0.03 0.03 87
20260505193850 10 28 25.7 35.4 0.00 0.03 0.03 87
20260505193344 10 24 27.4 41.8 0.00 0.03 0.03 87
20260505192839 10 15 30.6 41.8 0.00 0.03 0.03 87
20260505192328 10 347 32.2 45.1 0.00 0.03 0.03 87
20260505191826 10 5 32.2 45.1 0.00 0.03 0.03 87
20260505191322 10 30 30.6 45.1 0.00 0.03 0.03 87
20260505190809 10 13 29.0 41.8 0.00 0.03 0.03 87
20260505190304 10 19 29.0 48.3 0.00 0.03 0.03 88
20260505185758 10 19 30.6 48.3 0.00 0.03 0.03 87
20260505185252 10 20 29.0 45.1 0.00 0.03 0.03 88
20260505184752 10 12 30.6 45.1 0.00 0.03 0.03 88
20260505184525 10 19 30.6 40.2 0.00 0.03 0.03 88
20260505183754 10 11 27.4 40.2 0.00 0.03 0.03 88
20260505183523 10 5 27.4 37.0 0.00 0.03 0.03 88
20260505182754 10 15 29.0 45.1 0.00 0.03 0.03 87
20260505182252 10 0 30.6 45.1 0.00 0.03 0.03 87
20260505181750 10 22 27.4 45.1 0.00 0.03 0.03 87
20260505181251 11 355 25.7 45.1 0.00 0.03 0.03 87
20260505180750 11 355 24.1 41.8 0.00 0.03 0.03 87
20260505180253 11 355 27.4 43.5 0.00 0.03 0.03 87
20260505175753 11 13 27.4 43.5 0.00 0.03 0.03 86
20260505175250 11 0 25.7 40.2 0.00 0.03 0.03 86
20260505174750 11 10 30.6 48.3 0.00 0.03 0.03 86
20260505174249 11 355 32.2 48.3 0.00 0.03 0.03 86
20260505173747 11 24 32.2 48.3 0.00 0.03 0.03 86
20260505173517 11 5 33.8 48.3 0.00 0.03 0.03 85
20260505172746 11 28 35.4 48.3 0.00 0.03 0.03 85
20260505172248 11 5 30.6 48.3 0.00 0.03 0.03 85
20260505171746 11 5 25.7 38.6 0.00 0.03 0.03 85
20260505171246 11 19 29.0 46.7 0.00 0.03 0.03 84
20260505170747 11 355 33.8 49.9 0.00 0.03 0.03 83
20260505170246 11 14 30.6 49.9 0.00 0.03 0.03 82
20260505165746 11 12 29.0 45.1 0.00 0.03 0.03 82
20260505165247 11 35 27.4 45.1 0.00 0.03 0.03 82
20260505164748 11 17 25.7 43.5 0.00 0.03 0.03 82
20260505164246 11 22 25.7 38.6 0.00 0.03 0.03 82
20260505163747 11 16 27.4 38.6 0.00 0.03 0.03 82
20260505163247 11 35 30.6 41.8 0.00 0.03 0.03 82
20260505162748 11 5 33.8 46.7 0.00 0.03 0.03 82
20260505162246 11 19 33.8 51.5 0.00 0.03 0.03 82
20260505161744 11 10 32.2 51.5 0.00 0.03 0.03 83
20260505161236 11 13 32.2 48.3 0.00 0.03 0.03 82
20260505161001 11 20 32.2 48.3 0.00 0.03 0.03 82
20260505160222 12 0 32.2 45.1 0.00 0.03 0.03 83
20260505152633 12 13 30.6 43.5 0.00 0.03 0.03 85
20260505152359 12 9 27.4 43.5 0.00 0.03 0.03 84
20260505151632 12 15 25.7 40.2 0.00 0.03 0.03 85
20260505151350 11 28 29.0 41.8 0.00 0.03 0.03 85
20260505150616 11 5 27.4 41.8 0.00 0.03 0.03 85
20260505150111 11 13 29.0 40.2 0.00 0.03 0.03 86
20260505140535 11 9 25.7 35.4 0.00 0.03 0.03 87
20260505125024 11 39 16.1 29.0 0.00 0.03 0.03 88
20260505124525 11 17 16.1 25.7 0.00 0.03 0.03 88
20260505124018 11 29 17.7 30.6 0.00 0.03 0.03 88
20260505123516 11 33 19.3 32.2 0.00 0.03 0.03 88
20260505123017 11 22 19.3 32.2 0.00 0.05 0.03 88
20260505122516 11 9 17.7 30.6 0.00 0.05 0.03 87
20260505122015 11 25 19.3 35.4 0.00 0.05 0.03 88
20260505121516 11 41 19.3 35.4 0.00 0.05 0.03 87
20260505121240 11 20 19.3 29.0 0.00 0.05 0.03 88